Volver al catálogo

STARLINK-11128

ActivoComunicacionesVLEO
NORAD 60302·PAYLOAD·🇺🇸 United States

Lanzado Jul 28, 2024 desde Vandenberg Space Force Base

Loading…

Próximos Pases (próximas 24 horas)

TLE

ActualizadoSource: CelesTrak SupGP

Época: Sep 14, 2026, 21:45 UTC

1 60302C 24133B   26257.90673611 -.00014474  00000+0 -11925-3 0  2578
2 60302  53.1566 293.6111 0001231  75.9347 175.6698 15.69712484    14

Sigue STARLINK-11128 en tiempo real con AllMySat

Download on the App Store